DW4974 Weather Reports


time (UTC)temp
C
wind
direction
speed
KPH
gust
KPH
rain 1hr
cm
rain 24hr
cm
rain mn
cm
humidity
%
barometer
mb
20260505152553 11 360 20.9 27.4 0.00 0.00 0.00 77 1007.7
20260505151521 11 360 16.1 29.0 0.00 0.00 0.00 78 1007.7
20260505150533 11 360 17.7 30.6 0.00 0.00 0.00 78 1007.5
20260505140523 11 360 16.1 30.6 0.00 0.00 0.00 79 1007.2
20260505124527 12 360 14.5 24.1 0.00 0.00 0.00 75 1005.2
20260505123531 13 360 17.7 25.7 0.00 0.00 0.00 75 1004.5
20260505122547 13 360 12.9 25.7 0.00 0.00 0.00 76 1004.7
20260505121553 13 360 14.5 24.1 0.00 0.00 0.00 77 1004.5
20260505120554 13 360 17.7 27.4 0.00 0.00 0.00 77 1004.2
20260505115547 13 360 14.5 25.7 0.00 0.00 0.00 78 1004.0
20260505114524 13 360 14.5 24.1 0.00 0.00 0.00 78 1003.9
20260505113536 13 360 17.7 27.4 0.00 0.00 0.00 78 1003.7
20260505112525 13 360 17.7 27.4 0.00 0.00 0.00 78 1003.6
20260505111547 14 360 16.1 29.0 0.00 0.00 0.00 78 1003.4
20260505110532 14 360 14.5 27.4 0.00 0.00 0.00 78 1003.4
20260505101531 18 115 11.3 25.7 0.00 0.00 0.00 75 1002.9
20260505100543 18 116 14.5 24.1 0.00 0.00 0.00 73 1002.6
20260505095557 20 117 9.7 22.5 0.00 0.00 0.00 73 1002.4
20260505094522 20 119 14.5 22.5 0.00 0.00 0.00 72 1002.2
20260505093528 19 119 11.3 19.3 0.00 0.00 0.00 72 1001.9
20260505092520 19 120 11.3 19.3 0.00 0.00 0.00 73 1001.9
20260505091533 20 120 9.7 20.9 0.00 0.00 0.00 74 1002.0
20260505090537 20 121 9.7 17.7 0.00 0.00 0.00 75 1001.9
20260505085526 20 121 8.0 17.7 0.00 0.00 0.00 75 1001.7
20260505084523 20 121 8.0 17.7 0.00 0.00 0.00 75 1001.6
20260505083531 20 121 8.0 19.3 0.00 0.00 0.00 75 1001.3
20260505082522 20 121 8.0 19.3 0.00 0.00 0.00 76 1001.1
20260505081537 19 121 11.3 19.3 0.00 0.00 0.00 76 1000.9
20260505080523 19 121 3.2 25.7 0.00 0.00 0.00 76 1000.8
20260505075528 19 122 11.3 22.5 0.00 0.00 0.00 76 1000.7
20260505074522 19 122 9.7 20.9 0.00 0.00 0.00 77 1000.7
20260505073526 19 123 9.7 19.3 0.00 0.00 0.00 77 1000.6
20260505072533 19 123 11.3 17.7 0.00 0.00 0.00 77 1000.6
20260505071519 19 123 12.9 19.3 0.00 0.00 0.00 76 1000.7
20260505070533 19 123 12.9 19.3 0.00 0.00 0.00 76 1000.7
20260505065522 19 123 11.3 19.3 0.00 0.00 0.00 75 1000.9
20260505064532 20 123 14.5 19.3 0.00 0.00 0.00 75 1001.0
20260505063538 20 123 12.9 20.9 0.00 0.00 0.00 75 1001.2
20260505062547 20 123 12.9 17.7 0.00 0.00 0.00 74 1001.3
20260505061520 20 123 11.3 17.7 0.00 0.00 0.00 73 1001.2
20260505060515 20 123 11.3 17.7 0.00 0.00 0.00 73 1001.2
20260505055533 20 123 11.3 17.7 0.00 0.00 0.00 73 1001.2
20260505054528 20 123 11.3 19.3 0.00 0.00 0.00 73 1001.1
20260505053515 20 123 12.9 22.5 0.00 0.00 0.00 73 1001.1
20260505052529 20 124 12.9 20.9 0.00 0.00 0.00 73 1001.1
20260505051529 20 124 12.9 20.9 0.00 0.00 0.00 73 1001.4
20260505050542 20 124 11.3 17.7 0.00 0.00 0.00 73 1001.7
20260505041550 21 129 6.4 16.1 0.00 0.00 0.00 71 1001.6
20260505040555 21 130 9.7 17.7 0.00 0.00 0.00 71 1001.8
20260505035524 21 130 6.4 14.5 0.00 0.00 0.00 71 1002.0
20260505034535 21 131 1.6 16.1 0.00 0.00 0.00 71 1002.1
20260505033524 21 131 4.8 11.3 0.00 0.00 0.00 71 1002.0
20260505032531 21 131 0.0 11.3 0.00 0.00 0.00 70 1001.9
20260505031530 22 130 1.6 14.5 0.00 0.00 0.00 70 1001.8
20260505030526 22 131 3.2 17.7 0.00 0.00 0.00 70 1001.7
20260505025532 22 131 0.0 11.3 0.00 0.00 0.00 70 1001.4
20260505024518 22 131 0.0 12.9 0.00 0.00 0.00 69 1001.5
20260505023552 22 131 0.0 3.2 0.00 0.00 0.00 67 1001.6
20260505022518 22 131 0.0 12.9 0.00 0.00 0.00 67 1001.6
20260505021529 22 131 3.2 16.1 0.00 0.00 0.00 67 1001.6
20260505020527 22 131 9.7 14.5 0.00 0.00 0.00 67 1001.3
20260505015535 22 131 9.7 17.7 0.00 0.00 0.00 66 1001.3
20260505014550 22 132 11.3 16.1 0.00 0.00 0.00 66 1001.2
20260505013524 23 132 9.7 14.5 0.00 0.00 0.00 65 1001.2
20260505012518 23 132 9.7 16.1 0.00 0.00 0.00 64 1001.3
20260505011526 23 133 8.0 16.1 0.00 0.00 0.00 63 1001.4
20260505010536 23 133 11.3 16.1 0.00 0.00 0.00 62 1001.2
20260505005558 23 134 9.7 17.7 0.00 0.00 0.00 61 1001.2
20260505004520 24 136 8.0 14.5 0.00 0.00 0.00 61 1001.1
20260505003531 24 136 6.4 14.5 0.00 0.00 0.00 60 1001.2
20260505002537 25 136 9.7 16.1 0.00 0.00 0.00 59 1001.2
20260505001556 25 360 9.7 17.7 0.00 0.00 0.00 58 1001.1
20260505000525 25 144 9.7 17.7 0.00 0.00 0.00 57 1001.3
20260504235529 25 142 8.0 17.7 0.00 0.00 0.00 57 1001.4
20260504234528 25 142 12.9 17.7 0.00 0.00 0.00 54 1001.4
20260504233531 26 144 12.9 17.7 0.00 0.00 0.00 54 1001.5
20260504232542 26 146 9.7 19.3 0.00 0.00 0.00 53 1001.7
20260504231524 26 360 9.7 16.1 0.00 0.00 0.00 53 1001.8
20260504230532 26 148 11.3 17.7 0.00 0.00 0.00 52 1001.8
20260504225524 26 157 9.7 16.1 0.00 0.00 0.00 53 1002.0
20260504224521 26 153 9.7 17.7 0.00 0.00 0.00 52 1002.1
20260504223532 26 360 11.3 17.7 0.00 0.00 0.00 50 1002.1
20260504222551 26 159 8.0 16.1 0.00 0.00 0.00 49 1002.1
20260504221553 26 360 12.9 16.1 0.00 0.00 0.00 49 1002.0
20260504220522 26 360 8.0 16.1 0.00 0.00 0.00 50 1002.1
20260504215530 26 360 9.7 17.7 0.00 0.00 0.00 49 1002.3
20260504214548 26 360 8.0 17.7 0.00 0.00 0.00 48 1002.3
20260504213521 27 161 12.9 17.7 0.00 0.00 0.00 48 1002.4
20260504212526 26 360 3.2 20.9 0.00 0.00 0.00 48 1002.6
20260504211543 27 360 9.7 19.3 0.00 0.00 0.00 45 1002.7
20260504210606 27 360 4.8 16.1 0.00 0.00 0.00 45 1002.8
20260504205517 27 360 4.8 16.1 0.00 0.00 0.00 46 1002.9
20260504204523 27 360 9.7 16.1 0.00 0.00 0.00 44 1003.0
20260504203533 27 360 9.7 17.7 0.00 0.00 0.00 45 1003.1
20260504202528 27 168 12.9 19.3 0.00 0.00 0.00 46 1003.2
20260504201533 27 169 12.9 19.3 0.00 0.00 0.00 45 1003.3
20260504200522 27 360 4.8 20.9 0.00 0.00 0.00 45 1003.3
20260504195533 27 360 8.0 17.7 0.00 0.00 0.00 45 1003.5
20260504194538 27 360 12.9 19.3 0.00 0.00 0.00 45 1003.6
20260504193529 27 360 3.2 20.9 0.00 0.00 0.00 45 1003.8
20260504192517 27 360 9.7 17.7 0.00 0.00 0.00 45 1003.7
20260504191521 27 360 8.0 19.3 0.00 0.00 0.00 45 1003.8
20260504190530 26 360 8.0 19.3 0.00 0.00 0.00 44 1003.8
20260504185532 26 360 9.7 27.4 0.00 0.00 0.00 44 1003.9
20260504184518 26 360 6.4 17.7 0.00 0.00 0.00 44 1004.0
20260504183549 26 360 8.0 22.5 0.00 0.00 0.00 45 1004.1
20260504182526 26 360 11.3 19.3 0.00 0.00 0.00 46 1004.2
20260504181530 26 360 8.0 19.3 0.00 0.00 0.00 45 1004.4
20260504180541 26 217 3.2 17.7 0.00 0.00 0.00 45 1004.5
20260504175534 26 209 8.0 16.1 0.00 0.00 0.00 44 1004.6
20260504174543 26 360 11.3 19.3 0.00 0.00 0.00 44 1004.8
20260504173544 26 360 9.7 20.9 0.00 0.00 0.00 44 1004.8
20260504172528 26 360 1.6 16.1 0.00 0.00 0.00 48 1004.9
20260504171527 25 360 11.3 20.9 0.00 0.00 0.00 46 1004.9
20260504170534 25 360 8.0 17.7 0.00 0.00 0.00 46 1004.9